SM7GXQ Weather Reports


time (UTC)temp
C
wind
direction
speed
KPH
gust
KPH
rain 1hr
cm
rain 24hr
cm
rain mn
cm
humidity
%
barometer
mb
20260505124504 16 191 4.8 14.5 0.00 0.00 0.00 56 1007.5
20260505120005 15 220 6.4 19.3 0.00 0.00 0.00 56 1007.5
20260505114503 15 209 6.4 19.3 0.00 0.00 0.00 59 1007.5
20260505091503 13 262 4.8 11.3 0.00 0.00 0.00 61 1008.0
20260505090004 13 265 4.8 12.9 0.00 0.00 0.00 66 1007.9
20260505084504 12 269 3.2 9.7 0.00 0.00 0.00 69 1007.9
20260505083004 12 252 4.8 11.3 0.00 0.00 0.00 67 1008.0
20260505074504 12 249 4.8 9.7 0.00 0.00 0.00 69 1008.1
20260505071504 11 275 4.8 9.7 0.00 0.00 0.00 71 1008.2
20260505064504 10 283 3.2 9.7 0.00 0.00 0.00 75 1008.2
20260505063005 10 277 4.8 12.9 0.00 0.00 0.00 76 1008.2
20260505060004 9 276 4.8 12.9 0.00 0.00 0.00 79 1008.3
20260505054504 9 268 4.8 12.9 0.00 0.00 0.00 82 1008.3
20260505053005 8 276 8.0 12.9 0.00 0.00 0.00 82 1008.2
20260505040005 8 250 4.8 12.9 0.00 0.00 0.00 85 1007.8
20260505033004 7 254 3.2 14.5 0.00 0.00 0.00 85 1007.6
20260505023004 7 263 3.2 11.3 0.00 0.00 0.00 83 1007.6
20260505020004 8 267 4.8 12.9 0.00 0.00 0.00 82 1007.6
20260505014504 8 267 4.8 14.5 0.00 0.00 0.00 81 1007.6
20260505013003 8 262 4.8 12.9 0.00 0.00 0.00 81 1007.6
20260505011504 8 238 4.8 11.3 0.00 0.00 0.00 79 1007.6
20260505010005 8 258 3.2 11.3 0.00 0.00 0.00 78 1007.6
20260505004504 9 247 4.8 11.3 0.00 0.00 0.00 77 1007.6
20260505000004 9 225 4.8 12.9 0.00 0.00 0.00 74 1007.6
20260504231504 10 235 4.8 9.7 0.00 0.03 0.00 69 1007.6
20260504224504 10 251 3.2 11.3 0.00 0.05 0.00 68 1007.7
20260504223004 10 250 3.2 11.3 0.00 0.05 0.00 67 1007.9
20260504214504 11 256 3.2 8.0 0.00 0.05 0.08 65 1007.9
20260504213006 11 245 1.6 11.3 0.00 0.05 0.08 65 1007.9
20260504210005 11 241 3.2 11.3 0.00 0.05 0.08 67 1007.7
20260504204505 12 263 4.8 14.5 0.00 0.05 0.08 67 1007.6
20260504203005 12 249 4.8 12.9 0.00 0.05 0.08 66 1007.6
20260504200005 12 239 3.2 16.1 0.00 0.05 0.08 68 1007.4
20260504194505 12 246 3.2 12.9 0.00 0.05 0.08 68 1007.1
20260504193005 12 246 3.2 9.7 0.00 0.05 0.08 69 1007.1
20260504191505 13 225 1.6 12.9 0.00 0.05 0.08 68 1006.6
20260504190004 13 226 4.8 14.5 0.00 0.05 0.08 66 1006.6
20260504183005 14 257 4.8 16.1 0.00 0.05 0.08 64 1006.4
20260504180005 14 254 9.7 16.1 0.00 0.05 0.08 64 1006.0
20260504173005 15 250 8.0 16.1 0.00 0.05 0.08 59 1005.6